Home > Weather > Chennai > Past weeks

Flag for India Past Weather in Chennai, Tamil Nadu, India — Yesterday and Last 2 Weeks

Now
90 °F

Broken clouds.


Feels Like: 98 °F
Forecast: 78 / 86 °F
Wind: 5 mph from Southwest

Location: Madras / Minambakkam

Current Time: Jun 26, 2016 at 5:25:22 PM

Latest Report: Jun 26, 2016 at 4:30 PM


Visibility: 4 mi

Pressure: 29.59 "Hg

Humidity: 59%

Dew Point: 73 °F

Location of ChennaiLocation

Past Weather in Chennai — Graph

°F

Chennai Temperature Yesterday

Maximum temperature yesterday: 88 °F (at 2:00 PM)
Minimum temperature yesterday: 79 °F (at 6:30 AM)
Average temperature yesterday: 84 °F

High & Low Weather Summary for the Past Weeks

 TemperatureHumidityPressure
High100 °F (Jun 13, 3:30 PM)94% (Jun 20, 4:30 AM)29.74 "Hg (Jun 20, 4:30 AM)
Low75 °F (Jun 26, 3:00 AM)37% (Jun 15, 2:00 PM)29.50 "Hg (Jun 16, 4:00 PM)
Average88 °F65%29.62 "Hg
* Reported Jun 11 3:30 PM — Jun 26 4:00 PM, Chennai, Weather by CustomWeather, © 2016

Note: Actual official high and low records may vary slightly from our data, if they occured in-between our weather recording intervals... More about our weather records

Advertising

Chennai Weather History for the Previous 24 Hours

Scroll right to see more
 ConditionsComfort  
Time TempWeatherWind HumidityBarometerVisibility
4:00 PM
Sun, Jun 26
90 °FBroken clouds.5 mph63%29.59 "Hg4 mi
3:30 PM90 °FBroken clouds.8 mph59%29.59 "Hg4 mi
3:00 PM91 °FBroken clouds.6 mph56%29.59 "Hg4 mi
2:30 PM90 °FBroken clouds.6 mph63%29.62 "Hg4 mi
2:00 PM90 °FBroken clouds.8 mph63%29.62 "Hg4 mi
1:30 PM90 °FBroken clouds.9 mph55%29.62 "Hg4 mi
1:00 PM90 °FBroken clouds.8 mph59%29.62 "Hg4 mi
12:30 PM90 °FBroken clouds.10 mph59%29.65 "Hg4 mi
12:00 PM88 °FBroken clouds.9 mph62%29.65 "Hg4 mi
11:30 AM88 °FBroken clouds.9 mph62%29.65 "Hg4 mi
11:00 AM86 °FBroken clouds.8 mph62%29.65 "Hg4 mi
10:30 AM86 °FBroken clouds.7 mph62%29.65 "Hg4 mi
10:00 AM82 °FBroken clouds.7 mph74%29.68 "Hg4 mi
9:30 AM82 °FBroken clouds.7 mph74%29.68 "Hg4 mi
9:00 AM82 °FFog.6 mph79%29.68 "Hg3 mi
8:30 AM81 °FFog.3 mph84%29.68 "Hg3 mi
8:00 AM81 °FFog.3 mph79%29.68 "Hg3 mi
7:30 AM79 °FDrizzle. Broken clouds.3 mph84%29.68 "Hg3 mi
7:00 AM77 °FThunderstorms. Broken clouds.9 mph89%29.65 "Hg3 mi
6:30 AM77 °FThunderstorms. Broken clouds.9 mph83%29.65 "Hg3 mi
6:00 AM77 °FThunderstorms. Partly cloudy.17 mph83%29.65 "Hg2 mi
5:30 AM77 °FThunderstorms. Partly cloudy.3 mph89%29.65 "Hg2 mi
5:00 AM75 °FThunderstorms. Partly cloudy.6 mph94%29.65 "Hg2 mi
4:30 AM77 °FThunderstorms. Partly cloudy.5 mph89%29.65 "Hg2 mi
4:00 AM75 °FThunderstorms. Partly cloudy.9 mph89%29.65 "Hg2 mi
3:30 AM77 °FThunderstorms. Partly cloudy.9 mph83%29.62 "Hg2 mi
3:00 AM75 °FThunderstorms. Partly cloudy.8 mph89%29.65 "Hg2 mi
2:30 AM77 °FThunderstorms. Partly cloudy.17 mph83%29.65 "Hg2 mi
2:00 AM79 °FPartly cloudy.9 mph84%29.65 "Hg2 mi
1:30 AM79 °FPartly cloudy.12 mph84%29.65 "Hg2 mi
1:00 AM79 °FLight rain. Partly cloudy.12 mph84%29.65 "Hg2 mi
12:30 AM81 °FPartly cloudy.12 mph74%29.68 "Hg3 mi
12:00 AM84 °FPassing clouds.9 mph66%29.68 "Hg4 mi
11:30 PM
Sat, Jun 25
84 °FPassing clouds.9 mph66%29.68 "Hg4 mi
11:00 PM84 °FPassing clouds.15 mph70%29.68 "Hg4 mi
10:30 PM84 °FPassing clouds.12 mph74%29.68 "Hg4 mi
10:00 PM84 °FPassing clouds.8 mph74%29.68 "Hg4 mi
9:30 PM84 °FPassing clouds.7 mph70%29.68 "Hg4 mi
9:00 PM84 °FPassing clouds.7 mph70%29.65 "Hg4 mi
8:30 PM84 °FPassing clouds.6 mph74%29.65 "Hg4 mi
8:00 PM84 °FPassing clouds.6 mph74%29.62 "Hg4 mi
7:30 PM84 °FPassing clouds.3 mph74%29.62 "Hg4 mi
7:00 PM84 °FScattered clouds.3 mph74%29.62 "Hg4 mi
6:30 PM84 °FScattered clouds.3 mph74%29.62 "Hg4 mi
6:00 PM86 °FPartly sunny.3 mph70%29.62 "Hg4 mi
5:30 PM86 °FDrizzle. Partly sunny.5 mph70%29.62 "Hg4 mi
5:00 PM86 °FDrizzle. Partly sunny.6 mph66%29.62 "Hg4 mi
Weather by CustomWeather, © 2016

See weather overviewHow to use our weather pages